sat.trackr.live / text

‹ back to catalog

STARLINK-34894

NORAD 65753 · 2025-216V

PAYLOAD ACTIVE UNKNOWN

§ Identity

Operator
Country
US
Launch date
2025-09-25
Launch site
AFETR
Launch vehicle
Mass (kg)
RCS (m²)

Purposes: comms

External: N2YO · Heavens-Above · Gunter

§ Orbital elements

Epoch: 2026-05-24T21:42:14.330592Z

Period
94.11 min
Inclination
53.1598°
Eccentricity
0.0000799
Mean motion
15.30205437 rev/d
Perigee alt
474.7 km
Apogee alt
475.7 km
Semi-major
6,853.3 km
B*
6.9506e-4
RAAN
338.7921°
Arg perigee
82.6428°
Mean anomaly
277.4664°
Rev number
3,818

§ Raw data

STARLINK-348941 65753U 25216V   26144.90433253  .00020286  00000+0  69506-3 0  99942 65753  53.1598 338.7921 0000799  82.6428 277.4664 15.30205437 38183

JSON: /api/v1/satellites/65753 · /tle

For live sub-satellite position, see the globe view (requires WebGL).

§ Visibility from observer

Set your observer location to see the next 7 days of passes ≥ 10°. The values pass through the URL so the page stays shareable.

No JS? Fill the form by hand. The geolocation button needs JavaScript.